Location: Albany
(35.0000°S, 118.0000°E)
Time: 15:19:20
(UTC-04:00)

JAS-1B - Visible Passes

Search period start: 24 April 2014 00:00
Search period end: 04 May 2014 00:00
Orbit: 911 x 1745 km, 99.0° (Epoch: 23 April)

Date Brightness Start Highest point End Pass type
(mag) Time Alt. Az. Time Alt. Az. Time Alt. Az.
24 Apr 9.8 14:14:40 18° SSE 14:14:40 18° SSE 14:17:06 10° S visible
24 Apr 9.6 16:06:56 15° SSW 16:06:56 15° SSW 16:08:10 10° SSW visible
25 Apr 9.7 14:34:13 19° S 14:34:13 19° S 14:36:37 10° S visible
25 Apr 9.7 16:26:30 12° SSW 16:26:30 12° SSW 16:26:56 10° SSW visible
26 Apr 10.2 05:52:07 10° SSW 05:59:10 23° WSW 06:05:53 10° WNW visible
26 Apr 9.7 14:53:47 19° S 14:53:47 19° S 14:55:59 10° S visible
27 Apr 10.3 06:12:07 10° SSW 06:17:45 17° SW 06:23:11 10° W visible
27 Apr 10.2 13:21:05 12° SSE 13:21:05 12° SSE 13:22:00 10° SSE visible
27 Apr 9.7 15:13:22 18° S 15:13:22 18° S 15:15:15 10° S visible
28 Apr 10.5 06:32:46 10° SSW 06:36:15 12° SW 06:39:39 10° WSW visible
28 Apr 10.1 13:40:40 14° SSE 13:40:40 14° SSE 13:42:12 10° SSE visible
28 Apr 9.7 15:32:57 16° SSW 15:32:57 16° SSW 15:34:24 10° SSW visible
29 Apr 10.0 14:00:15 15° SSE 14:00:15 15° SSE 14:02:00 10° S visible
29 Apr 9.8 15:52:32 13° SSW 15:52:32 13° SSW 15:53:25 10° SSW visible
30 Apr 9.9 14:19:50 16° S 14:19:50 16° S 14:21:35 10° S visible
30 Apr 9.9 16:12:07 11° SSW 16:12:07 11° SSW 16:12:19 10° SSW visible
01 May 9.9 14:39:26 16° S 14:39:26 16° S 14:41:01 10° S visible
02 May 10.2 05:56:43 10° SSW 06:02:59 20° SW 06:08:53 10° W visible
02 May 9.9 14:59:02 15° S 14:59:02 15° S 15:00:20 10° S visible
03 May 10.3 06:16:59 10° SSW 06:21:30 15° SW 06:25:52 10° W visible
03 May 10.3 13:26:22 11° SSE 13:26:22 11° SSE 13:26:55 10° SSE visible
03 May 9.9 15:18:38 14° SSW 15:18:38 14° SSW 15:19:33 10° SSW visible
